sat.trackr.live / text

‹ back to catalog

UNKNOWN

NORAD 87159

UNKNOWN UNKNOWN UNKNOWN

§ Identity

Operator
Country
Launch date
Launch site
Launch vehicle
Mass (kg)
RCS (m²)

External: N2YO · Heavens-Above

§ Orbital elements

Epoch: 2026-09-18T06:48:06.706944Z

Period
105.36 min
Inclination
90.3463°
Eccentricity
0.0104285
Mean motion
13.66704791 rev/d
Perigee alt
934.4 km
Apogee alt
1,088.5 km
Semi-major
7,389.6 km
B*
9.0217e-4
RAAN
79.4981°
Arg perigee
146.4609°
Mean anomaly
214.3212°
Rev number
59,486

§ Raw data

UNKNOWN1 87159U          26261.28341096  .00000788  00000+0  90217-3 0  99942 87159  90.3463  79.4981 0104285 146.4609 214.3212 13.66704791594866

JSON: /api/v1/satellites/87159 · /tle

For live sub-satellite position, see the globe view (requires WebGL).

§ Visibility from observer

Set your observer location to see the next 7 days of passes ≥ 10°. The values pass through the URL so the page stays shareable.

No JS? Fill the form by hand. The geolocation button needs JavaScript.